TimeMDT,TemperatureF,Dew PointF,Humidity,Sea Level PressureIn,VisibilityMPH,Wind Direction,Wind SpeedMPH,Gust SpeedMPH,PrecipitationIn,Events,Conditions,WindDirDegrees,DateUTC
12:53 AM,70.0,36.0,29,29.96,10.0,WNW,5.8,-,N/A,,Clear,300,2013-07-14 06:53:00
1:53 AM,66.9,34.0,30,29.97,10.0,NW,4.6,-,N/A,,Clear,320,2013-07-14 07:53:00
3:53 AM,69.1,36.0,30,30.00,10.0,NW,12.7,-,N/A,,Clear,310,2013-07-14 09:53:00
4:53 AM,68.0,36.0,31,30.01,10.0,NNW,6.9,-,N/A,,Unknown,330,2013-07-14 10:53:00
5:53 AM,63.0,41.0,45,30.03,10.0,SE,3.5,-,N/A,,Clear,130,2013-07-14 11:53:00
6:53 AM,61.0,39.0,44,30.03,10.0,West,4.6,-,N/A,,Clear,270,2013-07-14 12:53:00
7:53 AM,64.9,45.0,48,30.04,10.0,WSW,4.6,-,N/A,,Clear,250,2013-07-14 13:53:00
8:53 AM,71.1,44.1,38,30.04,10.0,WSW,5.8,-,N/A,,Clear,240,2013-07-14 14:53:00
9:53 AM,77.0,43.0,30,30.04,10.0,WSW,8.1,-,N/A,,Clear,250,2013-07-14 15:53:00
10:53 AM,82.0,41.0,23,30.03,10.0,West,3.5,-,N/A,,Clear,270,2013-07-14 16:53:00
11:53 AM,84.9,41.0,21,30.01,10.0,WSW,5.8,-,N/A,,Clear,240,2013-07-14 17:53:00
12:53 PM,88.0,39.0,18,29.99,10.0,WSW,5.8,-,N/A,,Clear,240,2013-07-14 18:53:00
1:53 PM,91.0,43.0,19,29.97,10.0,ESE,3.5,-,N/A,,Clear,110,2013-07-14 19:53:00
2:53 PM,91.0,41.0,17,30.00,10.0,SSE,3.5,-,N/A,,Clear,150,2013-07-14 20:53:00
3:53 PM,91.9,41.0,17,29.92,10.0,ESE,3.5,-,N/A,,Clear,110,2013-07-14 21:53:00
4:53 PM,93.0,39.0,15,29.89,10.0,ESE,3.5,-,N/A,,Clear,110,2013-07-14 22:53:00
5:53 PM,91.9,45.0,20,29.87,10.0,ESE,4.6,-,N/A,,Clear,110,2013-07-14 23:53:00
6:53 PM,91.0,48.9,23,29.84,10.0,ESE,3.5,-,N/A,,Clear,120,2013-07-15 00:53:00
7:53 PM,91.0,48.0,23,29.83,10.0,Calm,Calm,-,N/A,,Clear,0,2013-07-15 01:53:00
8:53 PM,89.1,48.0,24,29.81,10.0,Calm,Calm,-,N/A,,Clear,0,2013-07-15 02:53:00
9:53 PM,80.1,53.1,39,29.82,10.0,Calm,Calm,-,N/A,,Clear,0,2013-07-15 03:53:00
10:53 PM,73.0,51.1,46,29.84,10.0,West,3.5,-,N/A,,Clear,280,2013-07-15 04:53:00
11:53 PM,72.0,45.0,38,29.84,10.0,West,3.5,-,N/A,,Clear,280,2013-07-15 05:53:00